Wind_Speed
25 24 23 22 21 21 22 23 23 22 21 23 25 27 30 32 34 37 39 39 37 37 39 44 48 50 49 46 43 40 39 40 43 43 41 37 33 31 29 27 26 26 27 29 31 31 28 24 22 22 24 24 25 25 25 24 23 23 23 23 24 24 24 24 24 24 24 24 24
24 24 23 23 23 23 25 26 26 25 24 24 25 26 28 30 32 34 35 34 32 29 28 31 36 39 42 42 43 43 45 46 46 44 40 36 33 29 27 24 23 23 25 27 29 29 28 25 23 22 22 22 22 22 23 23 23 23 23 24 24 25 25 25 25 25 26 26 25
24 25 26 26 26 27 27 27 26 25 24 23 24 26 27 29 30 31 32 32 30 26 22 20 20 21 24 26 30 33 35 37 37 36 35 33 31 27 23 21 20 21 22 24 26 27 27 25 23 22 22 22 21 21 21 23 23 23 24 25 26 27 28 28 27 27 27 26 25
23 23 25 26 28 29 29 28 27 25 24 24 25 25 25 26 27 29 31 32 30 27 22 18 15 14 14 14 16 18 21 24 27 29 30 30 29 26 22 19 18 18 18 19 21 23 24 24 23 22 22 21 20 19 20 22 23 25 26 28 29 29 29 27 26 26 26 25 24
23 22 21 22 24 26 28 29 28 27 26 27 27 25 23 22 23 25 28 29 30 28 26 23 22 18 15 12 12 13 16 20 23 25 26 27 26 24 22 19 17 15 14 13 14 17 20 22 22 22 21 20 18 16 18 21 24 26 27 29 30 29 26 24 22 23 24 23 23
25 23 20 18 20 23 27 29 30 29 29 29 29 26 22 20 19 21 23 25 27 28 28 29 28 25 19 14 13 15 17 20 21 22 23 23 22 21 20 18 16 14 12 11 11 13 17 20 21 21 20 18 16 17 20 23 25 27 28 29 29 27 25 23 22 23 22 21 22
28 25 21 18 19 23 27 30 32 32 32 31 30 27 23 20 18 18 19 21 24 26 29 32 32 29 24 18 16 17 19 19 19 19 18 18 18 17 16 15 15 15 15 14 12 12 14 17 18 19 19 18 19 21 24 26 27 28 28 28 27 27 26 24 23 23 22 21 22
30 28 23 20 21 25 29 32 34 34 34 32 30 27 24 21 19 18 19 20 23 25 28 32 34 32 29 24 22 21 20 20 18 18 18 18 19 18 17 17 17 18 18 17 15 13 13 15 17 18 20 21 23 26 28 29 29 28 27 26 27 27 26 25 24 23 21 19 20
31 29 25 21 22 26 30 33 35 35 33 30 28 26 24 22 20 19 20 21 22 24 27 30 33 34 33 30 27 25 23 22 21 21 21 23 24 23 23 22 22 22 22 20 18 17 17 17 19 21 22 24 26 28 30 29 28 26 25 25 26 26 25 24 22 21 19 16 16
32 30 27 24 24 27 30 33 34 33 30 28 27 26 24 22 20 19 18 19 21 22 24 27 30 32 33 31 28 26 25 24 23 24 25 27 28 27 26 26 26 26 26 23 21 21 20 20 21 23 24 25 27 29 30 28 26 25 26 26 26 25 24 22 21 19 17 15 15
30 29 27 25 25 26 29 31 31 30 28 27 27 25 23 19 16 14 13 14 15 17 19 21 24 27 28 27 25 24 24 24 25 26 28 29 29 28 28 28 28 28 27 25 24 22 21 21 22 23 24 26 28 29 29 27 26 26 27 27 26 25 24 22 21 18 16 15 15
28 27 25 24 24 25 27 28 28 27 27 26 24 22 18 14 11 10 10 10 10 10 11 13 16 18 19 19 20 22 23 25 26 27 28 28 28 28 28 29 30 29 27 26 24 22 19 19 21 22 24 26 27 28 28 27 28 27 27 26 25 24 23 22 21 19 18 18 19
26 25 23 22 23 24 26 26 26 24 23 22 21 18 14 11 12 13 12 11 10 9 9 10 11 13 15 17 20 23 24 25 26 27 27 27 27 28 29 31 30 28 26 26 24 21 18 18 19 21 23 25 27 28 28 28 28 27 25 23 21 20 20 19 20 20 21 23 24
28 25 23 21 22 24 25 25 23 20 19 18 18 17 14 12 13 14 13 12 12 12 11 12 13 15 17 19 22 24 26 27 28 29 29 30 30 31 31 30 28 26 25 24 22 19 17 17 19 20 23 25 26 27 27 27 24 21 19 18 17 17 17 18 20 22 24 25 26
30 28 25 21 21 23 24 24 21 18 16 16 16 16 15 14 13 13 13 14 15 16 16 15 16 17 19 23 25 27 28 28 29 29 30 30 30 30 29 27 26 24 24 22 20 18 16 16 17 19 21 23 24 25 24 22 18 15 14 15 16 18 19 20 21 23 25 27 28
30 29 27 24 22 22 23 23 22 20 18 17 17 17 17 16 16 15 16 16 19 20 21 21 21 22 24 26 28 28 29 29 29 29 29 28 27 26 25 24 24 24 24 23 21 19 17 16 16 17 19 20 21 21 19 17 15 15 16 17 19 21 22 23 24 25 26 28 29
29 29 28 26 24 23 23 24 24 24 22 20 19 19 19 19 19 19 19 20 21 23 24 25 26 27 28 29 29 29 29 28 28 28 27 26 25 24 23 23 23 24 25 24 23 21 20 18 17 17 18 18 19 18 18 17 17 18 19 20 22 23 24 25 25 26 26 27 27
26 27 28 27 26 25 25 25 26 25 24 23 22 22 22 21 22 22 22 23 24 25 26 28 28 29 29 29 29 29 28 28 28 27 26 25 24 23 23 23 24 24 25 25 24 23 22 21 20 20 20 20 20 20 20 20 21 22 23 23 24 25 25 25 25 25 24 23 22
23 24 25 26 26 26 25 25 25 25 24 24 24 24 24 24 24 24 25 26 26 26 27 28 29 30 30 30 29 28 28 28 27 27 26 25 24 24 24 24 24 24 24 24 24 23 23 23 23 24 24 24 24 23 23 23 24 24 24 25 25 25 26 26 26 25 23 21 20
19 21 22 23 23 24 24 24 24 23 23 23 23 24 25 25 26 26 27 28 27 27 27 28 29 30 30 30 29 29 28 28 27 27 27 25 24 24 24 24 24 24 24 23 23 23 24 24 25 25 25 25 25 24 23 23 23 23 23 23 24 24 25 25 25 24 22 21 21
17 18 19 20 21 21 21 22 21 21 21 22 23 24 25 26 27 27 28 28 28 28 28 28 29 30 30 30 30 30 29 28 28 27 26 24 24 23 23 23 23 23 23 23 23 23 24 24 25 25 25 25 24 22 21 21 20 21 21 22 22 23 23 23 23 23 22 22 22
14 16 17 18 19 20 20 20 21 21 21 22 23 24 25 26 27 28 29 29 29 29 29 29 29 30 30 31 31 30 29 28 28 26 25 23 22 22 22 23 23 23 23 23 23 24 24 24 24 24 24 24 23 23 22 21 21 20 21 21 21 21 21 21 22 22 22 22 22
11 13 15 17 18 19 20 21 21 21 22 22 23 24 25 27 28 29 30 30 31 31 31 31 31 31 31 31 31 31 30 29 28 27 25 24 22 22 22 22 23 23 24 24 24 24 24 24 24 24 24 24 24 24 23 23 22 21 21 21 21 20 20 21 21 21 21 21 20
9 11 12 14 16 18 19 21 22 23 23 24 24 25 26 27 28 29 30 31 32 32 32 32 32 32 32 33 32 32 31 30 29 28 27 25 24 23 23 23 24 24 25 25 25 24 24 24 24 24 24 25 25 24 23 22 21 21 21 21 21 21 21 21 21 21 21 20 19
9 9 10 12 14 15 17 19 21 22 23 24 25 26 27 28 29 30 31 32 33 33 33 33 33 34 34 33 33 32 31 30 30 29 28 27 26 25 25 25 25 26 26 26 25 25 25 25 25 25 25 25 24 23 22 21 21 21 21 21 21 21 22 22 22 22 21 20 18
10 10 10 11 12 14 16 17 19 21 23 24 26 27 28 29 30 31 32 33 33 34 34 34 34 34 34 34 33 32 31 30 30 29 28 28 27 27 27 27 27 27 27 26 25 25 25 24 24 24 24 24 23 22 21 20 20 21 21 22 22 22 23 22 22 21 20 19 18
11 10 10 11 12 13 15 16 18 19 21 23 25 27 29 30 31 32 33 33 34 34 34 34 34 33 33 33 33 32 31 30 29 29 29 28 28 28 28 28 28 27 27 26 25 24 23 23 23 23 23 23 22 21 21 21 21 22 23 23 23 23 22 21 21 20 19 18 18
12 11 11 11 12 13 14 15 17 19 21 23 25 27 28 30 31 32 33 33 34 34 34 33 33 33 33 33 32 31 30 29 29 29 29 29 29 29 29 29 28 27 26 24 23 23 22 22 22 22 22 22 22 22 22 23 23 24 24 23 22 22 21 20 19 19 18 18 18
13 12 12 12 12 13 14 15 17 19 20 22 24 26 27 29 30 31 31 32 32 33 33 33 33 33 33 32 31 30 29 29 29 29 29 29 29 29 29 28 27 25 24 23 22 22 22 22 22 22 23 23 23 23 24 24 24 23 23 22 21 20 20 19 19 18 18 18 18
14 14 13 13 13 13 14 16 17 18 20 22 23 25 26 27 28 29 29 30 31 31 32 32 32 31 31 30 29 29 29 29 29 29 29 29 29 28 27 26 25 23 22 22 21 21 21 22 22 22 22 22 22 23 23 23 22 22 21 20 20 19 19 18 18 18 17 17 17
15 15 14 14 14 14 15 16 17 18 20 22 23 24 25 26 26 27 28 29 30 31 31 31 30 28 27 27 27 27 28 28 28 28 27 27 27 26 25 24 23 22 22 22 21 22 22 22 22 22 21 21 21 21 21 21 20 20 20 19 19 19 18 18 17 17 17 17 17
16 16 16 15 15 15 16 16 17 18 20 21 23 24 25 25 26 27 27 28 29 29 29 29 27 26 25 25 26 26 27 27 27 26 26 26 25 25 24 23 23 22 22 22 22 22 22 22 22 22 21 21 21 20 20 19 19 19 19 18 18 18 17 17 17 16 16 16 16
17 17 17 17 17 16 17 17 17 18 19 21 23 24 25 25 26 27 27 27 27 27 27 26 26 25 25 25 26 26 26 26 26 26 26 25 25 24 24 23 23 23 23 23 23 22 22 22 22 22 21 21 20 19 19 18 18 18 18 17 17 17 16 16 16 15 15 15 15
16 17 18 18 18 18 18 18 18 18 19 20 22 24 25 26 26 27 27 27 27 27 26 26 25 25 25 25 26 26 26 26 26 26 26 25 25 24 24 23 23 23 23 23 23 22 22 22 22 21 21 20 20 19 19 18 18 18 17 17 17 16 16 15 15 14 14 14 14
16 17 18 19 19 19 19 19 19 19 20 20 22 23 24 26 27 27 27 27 27 27 27 26 26 26 26 26 26 26 26 26 26 26 26 25 24 24 24 24 23 23 23 23 23 22 22 21 21 21 21 21 20 20 19 18 18 17 17 17 16 16 15 15 14 14 14 14 14
15 16 18 20 20 20 20 20 20 20 20 21 21 22 23 25 26 27 27 27 27 27 27 27 27 26 26 26 26 26 26 26 25 25 25 24 24 24 24 24 23 23 23 23 22 22 21 21 21 21 21 21 20 20 19 19 18 18 17 17 16 15 15 15 14 14 14 14 14
14 15 17 19 21 22 22 21 21 21 21 21 21 22 23 23 25 26 27 27 28 28 28 27 27 27 27 26 26 26 26 26 25 24 24 24 24 24 24 23 23 23 23 22 22 22 22 22 22 21 21 21 20 20 19 19 18 18 17 17 16 16 15 15 14 14 14 14 15
15 15 16 18 20 22 23 23 23 22 22 22 21 21 22 23 23 25 26 27 27 27 28 27 27 27 26 26 26 26 26 25 24 24 24 24 23 23 23 23 23 23 23 23 22 22 22 22 22 22 21 21 21 20 20 19 19 18 18 17 16 16 15 15 15 15 14 15 15
15 15 16 17 19 21 23 24 24 23 23 22 21 21 21 22 22 23 24 25 26 27 27 26 26 26 26 25 25 25 25 24 24 24 23 23 23 23 23 23 23 24 23 23 23 23 23 23 22 22 22 21 21 20 20 19 19 18 18 17 17 16 16 15 15 15 15 15 16
16 16 16 17 18 20 22 24 25 24 23 22 22 21 21 21 21 22 23 24 25 26 26 25 25 25 25 24 24 24 24 24 23 23 23 23 23 23 23 24 24 24 24 24 24 24 23 23 23 22 22 21 21 21 20 20 19 19 18 18 17 16 16 16 16 15 15 16 16
17 17 17 17 17 19 21 24 25 25 25 23 22 21 21 21 21 22 23 23 24 25 25 25 25 24 24 23 23 23 23 23 23 23 23 23 23 24 24 24 25 25 25 25 25 24 24 23 23 23 22 22 21 21 20 20 19 19 18 18 17 17 16 16 16 16 16 16 17
Wind_Direction
234 235 238 242 246 252 257 259 257 254 252 251 251 251 252 252 251 250 248 246 245 243 241 237 235 234 235 237 237 238 241 246 250 255 261 265 264 260 256 252 249 247 245 243 241 239 236 232 227 223 222 226 230 232 229 222 216 212 212 213 216 219 222 225 228 229 229 228 227
240 241 243 246 249 252 255 256 254 252 250 251 253 254 254 253 251 249 245 242 240 239 236 232 230 231 232 235 236 238 242 247 249 252 255 259 259 257 253 248 246 243 242 241 240 238 235 231 227 224 223 223 226 228 226 220 215 212 212 213 215 218 220 222 224 226 227 228 228
246 248 249 251 253 253 253 251 249 247 248 251 254 255 254 252 249 245 241 238 237 236 233 228 222 222 225 228 232 236 239 241 242 243 246 251 252 251 247 243 240 239 239 238 238 236 233 229 226 224 221 218 219 222 222 219 215 213 214 215 216 218 219 220 222 224 227 229 229
244 242 243 247 249 251 250 247 245 244 247 250 252 252 250 247 243 241 239 237 235 234 234 233 227 222 220 221 225 229 232 233 234 237 240 244 245 245 242 237 235 234 235 236 234 231 229 226 224 221 218 215 214 217 221 221 218 217 218 218 219 218 217 217 219 223 226 229 230
240 236 234 235 240 244 245 244 242 242 245 247 249 248 246 243 241 239 237 236 233 232 233 236 235 231 228 231 238 241 240 239 237 236 237 238 239 238 236 232 229 229 230 232 228 223 220 219 219 217 214 211 214 222 229 229 224 222 222 222 221 220 218 216 217 220 223 226 228
243 240 233 228 231 237 241 241 240 240 241 243 245 247 248 247 243 238 234 231 229 228 231 234 233 230 229 236 247 251 248 243 238 235 234 235 237 236 234 230 228 230 235 237 230 218 211 210 210 209 208 207 214 226 235 235 230 226 224 222 221 221 221 219 218 219 220 221 223
244 243 237 228 227 232 237 239 239 239 238 239 240 244 248 252 249 241 232 227 225 227 230 233 232 229 227 230 238 243 242 238 234 233 235 240 242 243 241 240 243 250 255 253 242 223 208 203 205 206 206 207 215 223 229 230 227 223 220 218 217 218 219 220 220 219 219 220 221
245 244 239 231 226 230 235 238 238 237 236 235 235 239 246 252 250 243 234 228 226 227 230 233 232 228 225 225 229 231 231 230 232 236 244 250 253 253 251 251 255 260 263 259 245 226 210 205 208 212 214 215 216 218 220 221 219 216 214 213 212 213 215 217 219 220 220 221 223
245 243 239 234 228 230 234 237 238 238 236 233 232 235 241 247 245 241 237 234 232 231 231 232 231 228 226 225 223 221 219 222 230 239 246 250 251 251 249 249 252 256 258 254 239 221 210 209 213 217 220 221 219 217 215 215 214 214 215 214 212 212 213 213 215 217 219 223 227
246 242 239 236 232 232 234 237 238 238 236 232 231 234 238 241 241 242 243 244 242 239 235 231 227 225 223 221 217 213 213 219 229 238 243 246 247 246 246 246 248 252 253 247 230 216 210 212 215 219 222 223 221 218 216 216 219 224 225 222 216 212 210 209 210 211 214 221 230
245 242 238 236 234 233 233 234 235 234 231 229 229 232 236 237 240 245 252 256 256 251 243 234 226 220 217 216 213 214 219 227 235 240 242 243 244 245 245 246 247 249 247 238 225 216 214 216 218 219 222 223 222 220 218 218 224 228 227 222 215 209 205 204 205 208 214 223 232
243 241 237 235 233 231 230 229 228 226 225 224 226 228 229 233 244 259 267 269 267 261 251 240 229 221 219 222 226 231 236 240 242 242 242 242 242 243 244 244 245 243 238 229 223 221 222 220 220 220 222 223 222 220 217 217 221 223 222 219 215 210 205 204 206 211 218 224 230
244 240 235 231 229 227 226 224 222 220 218 218 217 215 217 234 259 271 271 263 255 250 246 242 236 233 235 239 241 243 243 242 240 238 236 235 235 236 238 239 239 236 229 223 222 224 225 222 220 219 220 221 220 218 216 215 215 215 216 217 216 215 213 211 215 220 224 226 229
246 244 238 230 224 223 223 221 219 216 213 210 205 204 211 234 255 261 256 244 235 232 234 238 240 239 237 235 235 236 236 236 234 233 231 230 230 231 232 234 233 229 224 220 221 223 223 220 218 217 217 217 217 215 213 211 209 209 213 216 218 219 222 225 229 230 230 231 234
244 245 243 235 226 222 221 220 219 218 216 213 210 211 219 233 241 241 236 229 224 222 223 228 232 232 230 227 226 226 227 227 228 228 227 227 227 229 230 232 230 226 222 221 220 219 217 216 214 213 212 211 211 209 208 208 212 220 230 234 234 233 233 235 236 237 237 237 238
238 240 242 241 234 228 225 224 224 224 225 225 225 226 231 237 237 234 231 229 223 220 220 222 223 224 223 222 221 221 221 223 224 225 226 227 229 230 232 232 230 226 223 222 220 217 214 212 211 210 207 205 205 206 211 219 232 241 245 244 242 240 239 238 240 241 242 242 242
234 234 235 236 235 232 230 230 229 229 229 229 230 232 235 238 240 238 235 233 225 221 220 220 220 220 220 219 219 220 221 223 225 227 229 230 232 234 234 233 230 226 224 223 222 221 219 216 214 212 210 208 209 214 223 233 240 242 241 238 237 238 238 239 241 242 243 244 243
234 232 231 231 231 230 229 230 230 230 229 227 227 229 233 238 241 240 237 232 225 221 221 220 221 221 220 220 221 222 224 226 228 230 231 233 235 236 235 233 230 227 225 224 224 224 224 224 222 220 217 215 216 220 225 229 232 233 232 232 232 234 236 239 240 241 242 242 242
235 233 232 230 229 228 227 227 228 227 226 225 224 226 230 234 237 236 233 228 224 222 222 222 222 222 223 223 224 225 227 229 231 232 233 234 235 235 235 232 230 227 225 224 224 224 225 226 225 222 219 216 215 217 219 222 225 227 228 229 230 232 235 238 240 241 241 241 240
235 234 233 232 231 229 227 226 225 225 224 222 222 224 227 230 232 231 229 225 223 223 223 224 224 225 225 226 226 227 227 229 231 233 234 234 235 235 233 231 229 227 225 224 223 223 223 224 223 221 218 215 215 217 221 224 226 227 229 230 232 234 237 240 242 242 242 240 237
235 234 234 233 232 231 230 228 227 225 223 221 220 221 223 226 227 227 226 224 223 223 224 226 227 227 228 228 228 228 228 229 232 234 236 236 236 235 232 229 227 225 224 223 223 223 223 224 224 222 221 219 222 227 232 235 236 236 235 236 236 238 240 241 242 242 239 237 235
238 236 235 234 234 233 233 231 230 227 224 222 220 220 221 222 223 224 224 224 223 223 224 226 228 229 230 231 232 232 231 232 234 236 238 239 237 234 230 228 226 225 225 224 223 223 224 224 225 225 225 226 231 236 242 244 244 243 242 241 241 241 241 241 240 239 236 234 234
246 242 240 238 237 236 235 234 232 230 227 224 222 221 221 221 221 221 222 223 224 224 225 227 229 231 232 234 235 235 235 236 237 239 240 241 238 234 229 227 225 225 224 225 225 225 225 225 226 227 229 232 236 241 244 245 245 244 243 242 242 241 241 240 239 238 237 236 236
260 255 250 246 243 240 238 237 235 232 230 227 225 223 222 222 222 221 222 223 224 226 227 229 230 232 234 235 236 238 239 239 239 240 241 242 240 236 231 227 225 224 225 226 227 228 228 228 229 230 232 235 238 241 243 242 241 240 239 239 240 240 240 240 240 240 240 240 240
274 269 264 258 252 248 244 241 238 235 233 231 228 226 225 224 223 223 223 223 224 225 227 230 232 233 235 237 238 239 240 241 240 240 240 240 240 237 233 228 226 225 227 229 230 230 230 230 230 231 233 235 236 237 237 236 235 235 236 237 238 239 239 239 239 240 240 240 239
279 277 273 268 262 256 251 246 242 239 236 233 231 228 226 225 224 224 224 224 224 224 226 229 231 234 236 238 240 241 241 241 240 239 238 239 239 237 234 231 229 229 231 232 232 232 231 231 231 232 232 232 231 231 231 232 232 233 234 235 236 237 237 237 237 236 236 236 236
278 278 276 272 268 261 256 251 247 243 239 235 232 229 227 226 225 224 224 224 224 224 224 226 229 233 236 238 240 240 240 240 239 238 237 237 237 236 235 233 233 234 235 236 236 235 234 234 233 232 231 230 229 230 231 233 233 233 234 234 234 234 234 234 234 234 234 234 236
276 275 274 272 267 262 257 254 249 244 240 236 233 230 228 226 225 224 224 223 223 223 223 224 226 229 233 236 238 238 238 237 237 236 235 235 235 235 235 236 237 238 239 239 239 239 238 237 235 233 232 231 231 231 231 231 232 232 232 232 232 231 231 231 231 232 233 236 238
272 272 271 268 264 260 256 252 248 244 240 237 233 230 228 227 226 225 223 223 222 222 222 223 224 226 230 233 234 235 235 235 235 234 234 234 234 234 235 236 237 239 240 241 241 240 238 236 234 233 233 232 230 229 228 227 227 227 227 228 228 227 228 228 230 232 235 238 242
268 268 267 265 262 258 253 249 246 242 239 236 232 230 228 226 225 224 223 222 222 221 221 222 224 226 228 230 231 231 232 232 233 233 233 232 232 232 233 235 237 239 241 241 240 237 235 232 230 229 228 227 225 224 223 223 223 223 223 223 224 225 226 228 231 234 238 241 244
264 263 263 262 260 257 252 248 245 241 238 234 231 229 227 225 224 224 223 222 221 221 221 222 224 226 227 228 229 230 230 231 232 232 232 232 232 233 234 237 239 240 240 238 235 233 230 228 226 225 223 222 221 221 220 220 220 220 220 221 222 224 227 229 233 236 239 243 247
260 260 259 259 257 255 251 248 245 241 237 233 231 228 226 225 224 223 222 222 222 222 222 224 225 226 227 227 228 229 230 232 232 233 233 233 234 236 238 239 240 239 236 233 230 228 226 224 223 222 221 220 219 219 218 218 218 218 219 221 223 226 229 232 235 238 241 245 249
259 257 256 256 255 253 250 248 245 242 238 234 232 229 227 226 225 224 223 222 221 222 223 224 226 226 227 228 229 230 231 232 233 234 235 236 237 238 238 238 237 234 231 228 226 224 223 222 221 220 219 218 217 216 216 216 217 218 220 222 226 229 232 234 237 240 244 248 252
260 256 254 253 251 250 248 247 245 243 240 237 234 231 229 228 227 226 225 223 222 222 223 224 225 226 228 229 230 231 232 233 234 235 236 237 238 237 236 235 233 230 228 225 223 222 221 220 219 218 217 216 214 214 214 216 217 220 222 225 228 231 234 237 240 244 247 251 255
265 258 253 251 249 248 246 245 244 242 241 238 236 234 232 231 229 228 227 226 225 224 224 224 225 225 227 228 230 231 233 234 234 235 236 236 236 234 233 231 229 227 226 224 222 221 220 219 218 217 216 215 214 214 215 217 219 222 225 227 230 233 236 240 243 247 251 255 259
272 264 257 251 248 246 244 242 242 241 240 239 238 236 235 233 232 230 229 228 227 226 225 225 225 226 227 228 229 230 232 233 234 234 234 234 233 232 230 229 227 226 225 224 222 220 219 218 217 217 216 216 216 217 218 220 222 225 228 230 233 236 240 243 247 251 255 259 262
281 272 263 255 249 245 242 240 239 239 238 238 238 237 236 235 233 232 230 229 228 227 227 227 227 227 228 228 229 230 231 231 232 232 232 232 231 230 229 228 227 226 225 224 222 220 218 217 217 218 218 219 219 220 222 224 226 228 231 233 236 240 243 247 251 255 259 262 265
288 280 272 263 254 248 243 239 237 236 236 236 237 237 237 235 234 232 231 230 229 228 228 227 227 228 228 229 229 230 230 230 230 230 230 229 229 228 228 227 227 226 225 223 221 219 218 218 219 220 221 221 222 224 225 227 229 232 234 236 239 243 246 250 254 258 261 264 266
294 288 280 271 262 254 246 241 236 234 234 234 235 235 235 235 234 233 232 231 230 229 228 227 227 228 229 229 229 229 229 229 228 227 227 227 227 228 227 227 226 225 224 222 220 219 219 219 221 222 224 224 225 226 228 230 232 234 237 239 242 246 250 253 257 261 264 266 267
297 293 287 279 271 261 252 245 239 235 233 232 233 233 234 234 233 232 231 231 230 229 228 227 227 228 228 229 229 229 228 228 227 226 226 226 227 227 226 226 225 223 222 221 220 219 220 221 223 225 226 227 228 229 231 233 235 237 240 242 245 249 252 256 260 263 265 267 268
299 296 292 286 279 270 260 251 243 237 234 232 231 231 232 232 232 231 231 230 229 228 227 227 227 227 227 228 228 228 228 227 227 226 226 226 226 226 226 225 224 223 222 221 221 221 222 224 226 227 228 229 230 232 234 236 237 240 242 245 248 251 254 257 261 264 266 268 267
Height
1480 1480 1480 1480 1479 1479 1479 1479 1480 1481 1482 1483 1485 1486 1488 1489 1489 1490 1491 1492 1492 1493 1492 1491 1491 1491 1493 1494 1496 1497 1498 1500 1502 1504 1508 1509 1510 1509 1508 1507 1505 1505 1505 1506 1508 1509 1510 1511 1511 1511 1511 1512 1513 1513 1514 1515 1516 1517 1518 1518 1519 1521 1522 1523 1523 1524 1525 1525 1526
1479 1479 1479 1479 1479 1480 1480 1480 1481 1481 1483 1484 1485 1486 1487 1488 1488 1488 1489 1489 1490 1490 1489 1488 1488 1488 1489 1491 1492 1493 1495 1497 1501 1505 1508 1509 1509 1508 1507 1505 1503 1503 1503 1505 1507 1508 1508 1509 1509 1509 1509 1510 1510 1511 1512 1513 1514 1515 1516 1517 1518 1519 1520 1521 1522 1523 1523 1523 1524
1478 1479 1479 1479 1479 1480 1480 1481 1481 1482 1483 1484 1485 1486 1486 1486 1487 1487 1487 1487 1488 1488 1488 1487 1486 1487 1487 1488 1490 1492 1494 1497 1501 1505 1507 1508 1508 1507 1505 1503 1502 1502 1503 1504 1506 1507 1507 1507 1507 1507 1507 1507 1508 1509 1510 1511 1513 1513 1514 1515 1516 1517 1518 1519 1520 1520 1521 1522 1522
1479 1479 1479 1479 1479 1479 1480 1480 1481 1482 1483 1483 1484 1485 1485 1485 1485 1485 1485 1485 1486 1486 1486 1486 1486 1486 1486 1488 1489 1491 1494 1497 1500 1503 1505 1506 1506 1505 1504 1503 1502 1502 1503 1504 1504 1505 1505 1506 1505 1505 1505 1505 1506 1507 1508 1510 1511 1512 1513 1513 1514 1515 1516 1517 1518 1519 1520 1520 1521
1478 1478 1478 1479 1479 1479 1479 1480 1481 1481 1482 1483 1483 1484 1484 1484 1484 1484 1484 1484 1484 1485 1485 1486 1485 1485 1486 1487 1488 1491 1493 1496 1499 1501 1502 1503 1503 1503 1503 1502 1501 1502 1502 1503 1503 1503 1504 1504 1504 1503 1503 1504 1505 1506 1507 1508 1509 1510 1510 1511 1512 1513 1513 1515 1516 1517 1518 1518 1518
1476 1476 1477 1478 1478 1479 1479 1479 1480 1480 1481 1482 1483 1483 1483 1483 1483 1483 1483 1483 1483 1484 1484 1484 1484 1485 1486 1487 1488 1491 1493 1495 1497 1498 1500 1501 1501 1501 1501 1500 1500 1500 1501 1501 1502 1502 1502 1502 1502 1502 1503 1503 1504 1505 1506 1507 1507 1508 1508 1509 1510 1511 1512 1513 1515 1515 1516 1516 1516
1475 1475 1475 1476 1478 1478 1478 1478 1479 1479 1480 1480 1481 1482 1482 1482 1482 1482 1482 1482 1483 1483 1483 1483 1483 1484 1486 1487 1489 1491 1493 1494 1495 1497 1498 1498 1499 1499 1499 1499 1499 1499 1500 1500 1500 1500 1500 1500 1501 1501 1502 1502 1503 1504 1504 1505 1505 1506 1507 1507 1508 1509 1511 1512 1513 1513 1513 1514 1514
1473 1474 1474 1475 1477 1477 1477 1477 1477 1477 1478 1479 1480 1481 1481 1482 1482 1482 1482 1482 1482 1482 1482 1482 1482 1483 1485 1487 1489 1490 1492 1493 1494 1495 1496 1497 1498 1498 1498 1498 1498 1498 1499 1499 1499 1499 1499 1499 1499 1500 1500 1500 1501 1502 1502 1503 1503 1504 1505 1505 1506 1507 1508 1509 1510 1510 1511 1511 1512
1473 1473 1473 1474 1475 1476 1476 1475 1475 1475 1476 1478 1479 1480 1480 1481 1481 1481 1481 1481 1481 1481 1481 1481 1481 1483 1484 1486 1488 1489 1491 1492 1493 1494 1495 1496 1496 1496 1497 1497 1497 1497 1498 1498 1498 1497 1497 1498 1498 1498 1498 1498 1499 1499 1500 1500 1501 1502 1503 1504 1504 1505 1506 1507 1507 1508 1509 1509 1511
1471 1471 1472 1473 1473 1474 1474 1473 1474 1474 1476 1477 1478 1478 1479 1480 1480 1480 1480 1480 1480 1480 1480 1480 1480 1481 1483 1485 1486 1488 1489 1490 1491 1492 1493 1494 1494 1494 1495 1495 1495 1495 1496 1496 1495 1495 1495 1495 1495 1496 1496 1497 1497 1498 1498 1498 1499 1500 1501 1502 1502 1503 1503 1504 1505 1506 1507 1508 1509
1470 1470 1471 1471 1472 1472 1472 1472 1473 1473 1474 1475 1476 1477 1478 1479 1479 1479 1480 1480 1480 1480 1479 1479 1480 1481 1483 1484 1485 1487 1488 1488 1489 1490 1491 1492 1492 1493 1493 1493 1493 1493 1493 1493 1493 1493 1493 1493 1493 1493 1494 1495 1495 1496 1496 1497 1498 1499 1499 1500 1500 1501 1501 1502 1503 1504 1506 1507 1508
1469 1469 1470 1470 1471 1471 1471 1471 1471 1472 1473 1474 1475 1476 1477 1478 1478 1479 1479 1479 1479 1480 1480 1480 1481 1482 1483 1485 1486 1486 1487 1487 1488 1488 1489 1489 1490 1490 1490 1490 1490 1490 1491 1491 1491 1490 1490 1491 1491 1492 1492 1493 1493 1494 1494 1495 1496 1497 1498 1498 1499 1499 1500 1501 1502 1504 1505 1506 1508
1468 1468 1468 1469 1470 1470 1470 1469 1470 1471 1472 1473 1473 1475 1476 1477 1477 1478 1478 1478 1478 1478 1479 1480 1481 1482 1483 1484 1485 1485 1485 1485 1485 1486 1486 1486 1487 1487 1487 1487 1487 1488 1488 1488 1489 1488 1488 1489 1489 1490 1490 1491 1492 1492 1493 1494 1494 1495 1497 1498 1499 1499 1500 1501 1503 1504 1505 1506 1507
1468 1467 1467 1468 1468 1468 1469 1469 1469 1470 1471 1471 1472 1473 1474 1475 1476 1476 1477 1477 1477 1477 1478 1478 1479 1480 1481 1481 1482 1482 1483 1483 1483 1483 1483 1483 1483 1484 1484 1484 1485 1486 1487 1487 1487 1487 1487 1488 1488 1488 1489 1489 1490 1491 1492 1493 1494 1495 1497 1498 1498 1499 1500 1501 1503 1503 1504 1505 1506
1467 1466 1466 1466 1466 1467 1468 1468 1468 1469 1470 1471 1471 1472 1472 1473 1473 1474 1475 1475 1475 1476 1476 1477 1477 1478 1478 1478 1479 1480 1480 1481 1481 1481 1482 1482 1482 1482 1483 1483 1484 1484 1485 1485 1486 1486 1486 1487 1487 1487 1488 1488 1489 1490 1491 1493 1494 1495 1496 1497 1498 1498 1499 1500 1501 1502 1503 1503 1504
1465 1465 1465 1465 1465 1466 1466 1466 1467 1468 1468 1469 1469 1470 1471 1471 1471 1472 1473 1473 1473 1474 1474 1475 1475 1476 1476 1477 1477 1478 1478 1479 1479 1479 1480 1480 1480 1481 1481 1482 1483 1483 1484 1484 1484 1484 1485 1485 1486 1486 1487 1487 1488 1489 1491 1492 1493 1494 1495 1496 1497 1498 1498 1499 1500 1501 1501 1502 1503
1463 1463 1464 1464 1465 1465 1465 1465 1465 1466 1466 1467 1467 1468 1468 1469 1469 1470 1470 1471 1472 1472 1472 1473 1473 1473 1474 1475 1475 1476 1477 1477 1478 1478 1478 1478 1479 1479 1480 1480 1481 1482 1482 1483 1483 1483 1483 1484 1485 1486 1486 1487 1487 1488 1489 1490 1491 1492 1493 1494 1495 1496 1497 1498 1498 1499 1499 1500 1500
1462 1462 1462 1463 1463 1463 1464 1464 1464 1464 1464 1465 1465 1466 1466 1467 1467 1468 1468 1469 1469 1470 1470 1471 1471 1472 1473 1473 1474 1474 1475 1475 1476 1476 1477 1477 1478 1478 1479 1479 1479 1480 1480 1481 1481 1481 1482 1483 1483 1484 1485 1485 1486 1487 1488 1488 1489 1490 1490 1492 1493 1494 1495 1496 1497 1497 1498 1498 1498
1461 1461 1461 1461 1461 1462 1462 1463 1463 1463 1463 1463 1464 1464 1465 1465 1465 1466 1466 1467 1468 1468 1469 1469 1470 1471 1471 1472 1473 1473 1473 1474 1474 1474 1475 1476 1476 1477 1477 1477 1478 1478 1479 1479 1479 1480 1481 1481 1482 1482 1483 1483 1484 1485 1486 1486 1487 1488 1489 1490 1491 1492 1493 1494 1494 1495 1496 1496 1497
1460 1460 1460 1460 1460 1461 1461 1461 1461 1462 1462 1463 1463 1463 1463 1464 1464 1464 1465 1466 1467 1467 1468 1468 1469 1469 1470 1470 1471 1471 1472 1472 1473 1473 1473 1474 1474 1475 1475 1476 1476 1476 1477 1478 1478 1478 1479 1480 1480 1481 1481 1482 1483 1483 1484 1485 1485 1486 1487 1488 1489 1490 1491 1492 1493 1493 1494 1494 1495
1460 1460 1459 1459 1460 1460 1460 1460 1460 1460 1461 1461 1462 1462 1463 1463 1463 1463 1464 1464 1465 1466 1467 1467 1467 1468 1468 1469 1469 1469 1470 1470 1471 1471 1472 1472 1473 1473 1473 1474 1474 1474 1475 1476 1476 1477 1478 1478 1479 1479 1480 1481 1482 1482 1483 1483 1484 1485 1486 1487 1488 1489 1489 1490 1491 1491 1492 1493 1493
1459 1459 1459 1458 1458 1458 1459 1459 1459 1459 1459 1460 1460 1461 1461 1462 1462 1462 1463 1463 1464 1464 1465 1465 1466 1466 1466 1467 1467 1468 1468 1469 1469 1470 1470 1471 1471 1472 1472 1472 1472 1473 1473 1474 1475 1475 1476 1477 1477 1478 1479 1479 1480 1481 1481 1482 1483 1483 1484 1485 1486 1487 1487 1488 1489 1489 1490 1491 1491
1458 1458 1458 1458 1458 1458 1458 1458 1458 1458 1458 1458 1459 1459 1459 1460 1460 1461 1461 1462 1462 1462 1463 1463 1464 1464 1465 1465 1466 1466 1467 1467 1468 1468 1469 1469 1470 1470 1470 1471 1471 1471 1472 1472 1473 1474 1474 1475 1476 1477 1477 1478 1479 1479 1480 1480 1481 1482 1482 1483 1484 1485 1485 1486 1487 1488 1488 1489 1489
1457 1457 1457 1457 1457 1457 1456 1456 1456 1457 1457 1457 1458 1458 1458 1458 1458 1459 1459 1460 1460 1461 1461 1462 1462 1462 1463 1463 1463 1464 1465 1466 1466 1467 1467 1468 1468 1468 1469 1469 1469 1470 1470 1471 1472 1472 1473 1474 1474 1475 1476 1476 1477 1478 1478 1479 1479 1480 1481 1481 1482 1483 1484 1484 1485 1486 1487 1487 1487
1456 1456 1456 1456 1455 1455 1455 1455 1455 1455 1455 1456 1456 1456 1456 1456 1457 1457 1457 1458 1458 1459 1459 1460 1460 1460 1461 1461 1462 1462 1463 1463 1464 1465 1465 1466 1466 1467 1467 1468 1468 1468 1469 1469 1470 1471 1472 1472 1473 1473 1474 1475 1475 1476 1477 1477 1478 1478 1479 1480 1480 1481 1482 1483 1483 1484 1485 1485 1485
1455 1455 1455 1454 1454 1454 1454 1454 1454 1454 1454 1454 1454 1454 1454 1454 1455 1455 1455 1456 1456 1457 1457 1458 1458 1458 1459 1459 1460 1461 1461 1462 1462 1463 1463 1464 1464 1465 1465 1466 1466 1467 1467 1468 1469 1469 1470 1471 1471 1472 1472 1473 1474 1474 1475 1476 1476 1477 1478 1478 1479 1480 1481 1481 1482 1482 1483 1483 1483
1454 1453 1453 1453 1453 1453 1453 1453 1453 1453 1452 1452 1453 1453 1453 1453 1453 1453 1453 1453 1454 1454 1455 1455 1456 1456 1457 1458 1458 1458 1459 1460 1460 1461 1461 1462 1462 1463 1463 1463 1464 1465 1465 1466 1467 1468 1468 1468 1469 1469 1470 1471 1472 1473 1473 1474 1475 1475 1476 1477 1478 1478 1479 1479 1480 1480 1481 1482 1482
1453 1453 1452 1452 1452 1452 1452 1452 1452 1451 1451 1451 1451 1451 1451 1451 1451 1451 1452 1452 1452 1453 1453 1453 1454 1454 1455 1456 1456 1456 1457 1458 1458 1459 1459 1460 1460 1461 1461 1462 1462 1463 1464 1464 1465 1465 1466 1466 1467 1467 1468 1469 1470 1471 1471 1472 1473 1474 1475 1475 1476 1477 1477 1478 1478 1479 1479 1480 1481
1451 1451 1451 1451 1451 1451 1451 1451 1451 1450 1450 1450 1450 1450 1450 1450 1450 1450 1450 1450 1451 1451 1451 1451 1452 1453 1453 1453 1454 1454 1455 1455 1456 1457 1457 1458 1458 1458 1459 1460 1461 1461 1462 1463 1463 1463 1464 1464 1465 1465 1466 1467 1468 1469 1470 1471 1472 1472 1473 1473 1474 1475 1476 1476 1477 1478 1478 1478 1479
1450 1450 1450 1450 1450 1450 1450 1450 1450 1449 1449 1449 1449 1449 1449 1448 1448 1448 1449 1449 1449 1449 1449 1450 1450 1451 1451 1451 1452 1452 1453 1453 1454 1454 1455 1455 1456 1456 1457 1458 1459 1459 1460 1461 1461 1462 1462 1463 1463 1464 1465 1466 1467 1467 1468 1469 1470 1471 1471 1472 1473 1473 1474 1475 1475 1476 1476 1476 1477
1449 1449 1448 1448 1448 1449 1449 1449 1449 1448 1448 1448 1448 1448 1448 1448 1448 1448 1448 1448 1448 1448 1448 1448 1449 1449 1449 1449 1450 1450 1451 1451 1452 1452 1453 1453 1454 1454 1455 1456 1457 1458 1458 1459 1459 1460 1461 1461 1462 1463 1463 1464 1465 1466 1467 1468 1468 1469 1469 1470 1471 1472 1472 1473 1473 1474 1474 1474 1475
1448 1448 1448 1447 1447 1447 1448 1448 1448 1448 1448 1447 1447 1447 1447 1447 1447 1446 1446 1446 1446 1446 1447 1447 1447 1447 1448 1448 1448 1449 1449 1450 1450 1451 1451 1452 1452 1453 1453 1454 1455 1456 1457 1458 1458 1459 1459 1460 1461 1461 1462 1463 1464 1464 1465 1466 1467 1467 1468 1468 1469 1469 1470 1471 1471 1472 1472 1472 1473
1447 1446 1446 1446 1446 1446 1446 1446 1446 1446 1446 1446 1446 1446 1446 1446 1445 1445 1445 1445 1445 1445 1445 1445 1446 1446 1446 1447 1447 1447 1448 1448 1449 1449 1449 1450 1450 1451 1452 1453 1454 1455 1455 1456 1457 1458 1458 1459 1459 1460 1461 1462 1462 1463 1463 1464 1465 1465 1466 1466 1467 1468 1468 1469 1469 1470 1470 1470 1471
1445 1445 1445 1445 1445 1445 1445 1445 1445 1445 1445 1445 1445 1445 1445 1445 1444 1444 1444 1444 1444 1444 1444 1444 1444 1445 1445 1445 1446 1446 1447 1447 1448 1448 1448 1448 1449 1450 1451 1452 1452 1453 1454 1454 1455 1456 1457 1457 1458 1459 1459 1460 1461 1462 1462 1463 1463 1463 1464 1465 1465 1466 1466 1467 1467 1468 1468 1468 1468
1444 1444 1443 1443 1443 1443 1443 1443 1443 1443 1443 1443 1443 1443 1443 1443 1443 1443 1443 1443 1443 1443 1443 1443 1443 1443 1444 1444 1444 1445 1445 1446 1446 1446 1447 1447 1448 1448 1449 1450 1451 1451 1452 1453 1453 1454 1455 1456 1457 1457 1458 1459 1459 1460 1461 1461 1461 1462 1462 1463 1463 1464 1464 1465 1465 1466 1466 1467 1467
1443 1443 1442 1442 1442 1442 1442 1442 1442 1442 1442 1442 1442 1442 1442 1442 1442 1442 1442 1442 1442 1442 1442 1442 1442 1442 1442 1443 1443 1443 1444 1444 1444 1445 1445 1446 1447 1447 1448 1448 1449 1450 1450 1451 1452 1453 1453 1454 1455 1456 1456 1457 1458 1458 1459 1459 1460 1460 1461 1461 1462 1462 1463 1463 1464 1464 1464 1465 1465
1442 1441 1441 1441 1440 1440 1440 1440 1440 1440 1440 1440 1440 1440 1440 1440 1440 1440 1440 1440 1440 1440 1440 1440 1441 1441 1441 1441 1441 1442 1442 1443 1443 1444 1444 1445 1445 1446 1447 1447 1448 1448 1449 1450 1451 1451 1452 1453 1453 1454 1455 1456 1456 1457 1457 1458 1458 1458 1459 1459 1460 1461 1461 1461 1462 1462 1463 1463 1463
1440 1440 1439 1439 1439 1439 1439 1439 1438 1438 1438 1438 1438 1438 1438 1438 1438 1438 1438 1438 1438 1438 1438 1439 1439 1439 1439 1440 1440 1440 1441 1441 1442 1443 1443 1443 1444 1445 1445 1446 1446 1447 1448 1448 1449 1450 1451 1451 1452 1453 1453 1454 1455 1455 1455 1456 1456 1457 1457 1458 1458 1459 1459 1460 1460 1460 1461 1461 1462
1439 1438 1438 1438 1438 1438 1438 1437 1437 1437 1437 1437 1437 1437 1437 1437 1437 1437 1437 1437 1437 1437 1437 1437 1438 1438 1438 1438 1439 1439 1439 1440 1441 1441 1442 1442 1443 1443 1444 1444 1445 1445 1446 1447 1448 1449 1449 1450 1451 1451 1452 1453 1453 1453 1454 1454 1455 1455 1456 1456 1457 1457 1458 1458 1458 1459 1459 1459 1460
1438 1437 1437 1436 1436 1436 1436 1436 1436 1436 1435 1435 1435 1435 1435 1435 1435 1435 1435 1435 1435 1435 1436 1436 1436 1436 1437 1437 1437 1438 1438 1439 1439 1440 1440 1441 1441 1442 1442 1443 1443 1444 1445 1446 1447 1447 1448 1448 1449 1450 1450 1451 1452 1452 1452 1453 1453 1453 1454 1454 1455 1455 1456 1456 1457 1457 1458 1458 1458
1436 1436 1435 1435 1435 1434 1434 1434 1434 1434 1434 1434 1434 1434 1434 1434 1434 1433 1433 1433 1433 1433 1434 1434 1434 1435 1435 1436 1436 1436 1437 1437 1438 1438 1439 1439 1440 1440 1440 1441 1442 1443 1443 1444 1445 1446 1447 1447 1448 1448 1449 1449 1450 1450 1451 1451 1451 1452 1452 1453 1453 1453 1454 1454 1455 1455 1456 1456 1456